Martha's Vineyard, MA

6:58 AM EDT on June 28, 2017 (GMT -0400)
Martha's Vineyard

Weather History for KMVY - April, 2014

Change the Weather History Date:

Friday, April 25, 2014

  Actual Average Record
Temperature  
Mean Temperature 50 °F -  
Max Temperature 57 °F 56 °F 70 °F (1982)
Min Temperature 44 °F 40 °F 21 °F (2003)
Degree Days  
Heating Degree Days 14    
Moisture  
Dew Point 30 °F    
Average Humidity 49    
Maximum Humidity 73    
Minimum Humidity 29    
Precipitation  
Precipitation 0.00 in - - ()
Sea Level Pressure  
Sea Level Pressure 29.94 in    
Wind  
Wind Speed 10 mph (West)    
Max Wind Speed 14 mph    
Max Gust Speed 23 mph    
Visibility 10 miles    
Events      
Averages and records for this station are not official NWS values.
T = Trace of Precipitation, MM = Missing Value Source: NWS Daily Summary

Daily Weather History Graph

Daily Weather History Graph

Search for Another Location

Airport or City:

Trip Planner

Search our weather history database for the weather conditions in past years. The results will help you decide how hot, cold, wet, or windy it might be!

Date:

Astronomy

Apr. 25, 2014 Rise Set
Actual Time 5:47 AM EDT 7:33 PM EDT
Civil Twilight 5:18 AM EDT 8:03 PM EDT
Nautical Twilight 4:42 AM EDT 8:39 PM EDT
Astronomical Twilight 4:04 AM EDT 9:17 PM EDT
Moon 3:36 AM EDT (4/25) 3:49 PM EDT (4/25)
Length of Visible Light 14h 44m
Length of Day
13h 45m
Waning Crescent, 15% of the Moon is Illuminated
Apr 25
Waning Crescent
Apr 29
New
May 6
First Quarter
May 14
Full
May 21
Last Quarter

Hourly Weather History & Observations

Time (EDT) Temp. Windchill Dew Point Humidity Pressure Visibility Wind Dir Wind Speed Gust Speed Precip Events Conditions
12:53 AM 46.0 °F 41.9 °F 28.9 °F 51% 29.91 in 10.0 mi NNW 8.1 mph - N/A   Clear
1:53 AM 46.0 °F 41.9 °F 28.0 °F 50% 29.90 in 10.0 mi NW 8.1 mph - N/A   Clear
2:53 AM 45.0 °F 41.8 °F 28.0 °F 52% 29.90 in 10.0 mi NW 5.8 mph - N/A   Clear
3:53 AM 44.1 °F 40.1 °F 28.0 °F 53% 29.91 in 10.0 mi NW 6.9 mph - N/A   Clear
4:53 AM 44.1 °F 38.6 °F 28.0 °F 53% 29.92 in 10.0 mi NNW 10.4 mph - N/A   Clear
5:53 AM 44.1 °F 39.0 °F 28.0 °F 53% 29.95 in 10.0 mi NNW 9.2 mph - N/A   Clear
6:53 AM 46.9 °F - 28.0 °F 48% 29.99 in 10.0 mi NNW 10.4 mph - N/A   Clear
7:53 AM 50.0 °F - 28.0 °F 43% 30.01 in 10.0 mi NNW 13.8 mph 20.7 mph N/A   Clear
8:53 AM 52.0 °F - 28.0 °F 40% 30.00 in 10.0 mi North 11.5 mph 23.0 mph N/A   Clear
9:53 AM 54.0 °F - 26.1 °F 34% 29.99 in 10.0 mi NNE 12.7 mph - N/A   Clear
10:53 AM 57.9 °F - 27.0 °F 31% 30.00 in 10.0 mi NE 11.5 mph - N/A   Clear
11:53 AM 57.9 °F - 27.0 °F 31% 29.98 in 10.0 mi NE 9.2 mph - N/A   Clear
12:53 PM 57.0 °F - 25.0 °F 29% 29.96 in 10.0 mi ENE 10.4 mph - N/A   Clear
1:53 PM 55.9 °F - 28.9 °F 36% 29.96 in 10.0 mi SSW 11.5 mph - N/A   Clear
2:53 PM 55.0 °F - 27.0 °F 34% 29.96 in 10.0 mi SSW 13.8 mph - N/A   Clear
3:53 PM 54.0 °F - 28.9 °F 38% 29.94 in 10.0 mi SW 13.8 mph - N/A   Clear
4:53 PM 54.0 °F - 30.0 °F 40% 29.93 in 10.0 mi South 13.8 mph - N/A   Clear
5:53 PM 51.1 °F - 32.0 °F 48% 29.91 in 10.0 mi South 13.8 mph - N/A   Clear
6:53 PM 46.9 °F - 36.0 °F 66% 29.90 in 10.0 mi SSW 10.4 mph - N/A   Clear
7:53 PM 46.0 °F 41.9 °F 36.0 °F 68% 29.90 in 10.0 mi SSW 8.1 mph - N/A   Clear
8:53 PM 46.0 °F 41.9 °F 36.0 °F 68% 29.91 in 10.0 mi South 8.1 mph - N/A   Clear
9:53 PM 46.9 °F - 37.0 °F 68% 29.92 in 10.0 mi South 10.4 mph - N/A   Partly Cloudy
10:53 PM 46.0 °F 42.5 °F 37.0 °F 71% 29.91 in 10.0 mi SSW 6.9 mph - N/A   Partly Cloudy
11:53 PM 46.0 °F 41.9 °F 37.9 °F 73% 29.89 in 10.0 mi South 8.1 mph - N/A   Partly Cloudy